Regional Weather Roundup
Issued by NWS Sterling, VA

Home | Current Version | Previous Version | Graphics & Text | Print | Product List | Glossary On
Versions: 1 2 3 4 5 6 7 8 9 10 11 12 13 14 15 16 17 18 19 20 21 22 23 24 25 26 27 28 29 30 31 32 33 34 35 36 37 38 39 40 41 42 43 44 45 46 47 48 49 50
300
ASUS41 KLWX 230011
RWRLWX

REGIONAL WEATHER ROUNDUP
NATIONAL WEATHER SERVICE BALTIMORE MD/WASHINGTON DC
800 PM EDT SAT JUL 22 2017

Note: "FAIR" indicates few or no clouds below 12,000 feet
with no significant weather and/or obstructions to visibility.
 TC=TEMPERATURE CELSIUS

 * =Non NWS site. Station does not report precipitation (e.g. rain,
    snow, etc.), thunder, or fog.

DCZ001-MDZ009-015-VAZ040>042-051-053>054-230100-
WASHINGTON METRO

CITY           SKY/WX    TMP DP  RH WIND       PRES   REMARKS
WASHINGTON NAT CLOUDY    77  71  82 CALM      29.79F
DULLES         CLOUDY    73  71  93 CALM      29.79F
QUANTICO       FAIR      78  73  84 NE5       29.80R
COLLEGE PARK*  FAIR      73  71  93 CALM      29.77F
LEESBURG*      FAIR      73  73 100 CALM      29.81R
MANASSAS*      FAIR      74  72  93 S3        29.80R
GAITHERSBURG*  FAIR      72  71  97 CALM      29.81R

$$

MDZ006>007-011-014-230100-
BALTIMORE METRO

CITY           SKY/WX    TMP DP  RH WIND       PRES   REMARKS
BWI AIRPORT    CLOUDY    73  73 100 SW6       29.77F
MD SCIENCE CTR   N/A     77  73  87 MISG      29.77F
MARTIN STATE   CLOUDY    77  75  94 SW6       29.77F
ANNAPOLIS      LGT RAIN  72  50  46 W5        29.77F
FORT MEADE*    FAIR      72  70  94 SW3       29.80F

$$

MDZ012-015-019>023-230100-
MARYLAND EASTERN SHORE

CITY           SKY/WX    TMP DP  RH WIND       PRES   REMARKS
OCEAN CITY     FAIR      79  76  90 SW5       29.80R
SALISBURY      PTCLDY    79  75  89 W8        29.82R
BAY BRIDGE AP* LGT RAIN  75  72  88 SW7       29.78F
CAMBRIDGE*     CLOUDY    73  72  94 SW5       29.79F FOG
EASTON*        RAIN      79  72  78 W9        29.82S

$$

MDZ017>025-230100-
SOUTHERN MARYLAND

CITY           SKY/WX    TMP DP  RH WIND       PRES   REMARKS
PATUXENT RIVER TSTM      75  71  87 S3        29.82R
ST INIGOES     MOCLDY    80  68  66 NW8       29.83R THUNDER
LEONARDTOWN*   FAIR      72  70  94 CALM      29.84F

$$

MDZ003>005-230100-
NORTH CENTRAL MARYLAND

CITY           SKY/WX    TMP DP  RH WIND       PRES   REMARKS
FREDERICK*     MOCLDY    75  73  94 CALM      29.81R
HAGERSTOWN APT MOCLDY    75  72  90 S7        29.81R
WESTMINSTER*   FAIR      73  72  94 W7        29.80R

$$

MDZ501>502-230100-
WESTERN MARYLAND

CITY           SKY/WX    TMP DP  RH WIND       PRES   REMARKS
OAKLAND*       CLOUDY    64  64 100 SW9       29.92R
CUMBERLAND*    CLOUDY    72  72 100 SE5       29.88R

$$

VAZ025>031-230100-
SHENANDOAH VALLEY

CITY           SKY/WX    TMP DP  RH WIND       PRES   REMARKS
WINCHESTER*    FAIR      70  70 100 W3        29.82R
FRONT ROYAL*   MOCLDY   N/A N/A N/A S3        29.81R
LURAY*         FAIR      77  73  88 CALM      29.84R
NEW MARKET*    FAIR      75  70  83 CALM      29.83R
STAUNTON*      FAIR      80  72  75 N5        29.87R
WAYNESBORO*    CLOUDY    84  74  71 NW3       29.86R HX  91

$$

WVZ021-048>050-054>055-230100-
EASTERN WEST VIRGINIA PANHANDLE

CITY           SKY/WX    TMP DP  RH WIND       PRES   REMARKS
MARTINSBURG    FAIR      72  70  93 S3        29.80R
PETERSBURG*    FAIR      73  73  97 CALM      29.87R

$$

VAZ036>039-050-230100-
CENTRAL FOOTHILLS

CITY           SKY/WX    TMP DP  RH WIND       PRES   REMARKS
CHARLOTTESVILL FAIR      80  74  81 N5        29.82R
CULPEPER*      FAIR      76  75  97 CALM      29.81S
ORANGE*        LGT RAIN  73  73 100 CALM      29.80S
GORDONSVILLE*  MOCLDY    76  76  99 SW5       29.80R
WARRENTON*     FAIR      76  72  87 CALM      29.79F

$$

VAZ055>057-230100-
NORTH AND CENTRAL PIEDMONT

CITY           SKY/WX    TMP DP  RH WIND       PRES   REMARKS
FREDERICKSBRG*   N/A     75  75 100 MISG      29.78S
STAFFORD*      FAIR      75  75  99 E6        29.84R

$$

NCZ024-NYZ072-PAZ021-071-VAZ022-071-230100-
OTHER REGIONAL OBSERVATIONS

CITY           SKY/WX    TMP DP  RH WIND       PRES   REMARKS
NEW YORK CITY  FAIR      80  66  62 VRB5      29.80S
PHILADELPHIA   MOCLDY    82  72  71 E8        29.74S
PITTSBURGH     MOCLDY    74  73  97 S7        29.80F
ROANOKE        FAIR      91  72  53 SW9       29.86R HX  98
RICHMOND       MOCLDY    95  68  41 W12       29.78R HX  99
RALEIGH        FAIR      92  72  51 SW13      29.86S HX  99

$$

ANZ530>537-230100-
MARINE OBSERVATIONS

STATION/POSITION TIME  TEMP    WIND        PRES
                       AIR SEA DIR/SP/G
                 (UTC) (F)     (DEG/KT/KT) (MB)
THOMAS PT LIGHT  0000   76 85  250/ 11/ 12   N/A
BALT KEY BRIDGE  2342   76     230/  9/ 11 1007.8F
COVE POINT       2348   76      20/  7/ 11 1009.8F
LEWISETTA        2342   84 86   50/ 10/ 16 1009.4R
SOLOMONS ISLAND  2348          320/  1/  7   N/A
PINEY POINT      2348           20/  9/ 11   N/A

$$





USA.gov is the U.S. government's official web portal to all federal, state and local government web resources and services.